Location: Cruquius
(52.3348°N, 4.6319°E)
Time: 08:26:50
(UTC+00:00)

Okean 1-7 - Pass Details

Date: 12 May 2021
Orbit: 591 x 617 km, 82.5° (Epoch: 20 June)

Event Time Altitude Azimuth Distance (km) Brightness Sun altitude
Exits shadow 22:43:29 32° 124° (SE) 1,033 3.8 -18.3°
Maximum altitude 22:44:32 37° 92° (E) 931 3.8 -18.3°
Drops below altitude 10° 22:48:30 10° 25° (NNE) 1,950 6.4 -18.5°
Sets 22:50:50 0° 17° (NNE) 2,862 7.5 -18.6°
